www.pogodaiklimat.ru

Погода и климат >> Архив погоды >> Филиппины >> Инфанта


ПОГОДА в Инфанте

  • Прогноз погоды в Инфанте
  • Монитор погоды в Инфанте

АРХИВ ПОГОДЫ в Инфанте

Время (UTC), дата Ветер
(напр.,м/с)
 
Видим.   Явления Облачность Т
(С)
Тd
(С)
f
(%)
Тe
(С)
Тes
(С)
Комфортность P
(гПа)
Po
(гПа)
Тmin
(С)
Tmax
(С)
R
(мм)
R24
(мм)
S
(см)
18 16.08 Ю 2 20 км 3/1 540 м
[Cu med, cong Ci fib]
+28.0 +25.6 87 +41 +41 опасность
перегрева
1010.1 1009.3
21 16.08 ЮЗ 2 25 км 3/1 540 м
[Cu med, cong Ci fib]
+27.1 +25.4 90 +39 +39 очень
душно
1009.7 1008.9
00 17.08 штиль 0 20 км мгла {туман} 4/1 540 м
[Cu med, cong Ci fib]
+30.6 +25.8 76 +46 +53 опасность
перегрева
1009.9 1009.1 +26.5
03 17.08 В 1 20 км мгла {туман} 4/3 540 м
[Cu med, cong Ci fib]
+32.3 +29.7 86 +58 +75 опасность
перегрева
1009.5 1008.7
06 17.08 В 2 18 км мгла {туман} 5/3 540 м
[Cu med, cong Ci fib]
+33.4 +32.3 94 +70 +80 опасность
перегрева
1007.5 1006.7
09 17.08 штиль 0 18 км мгла {туман} 6/3 540 м
[Cu med, cong Ac trans Cs]
+33.3 +29.4 80 +58 +59 опасность
перегрева
1007.1 1006.3
12 17.08 Ю 1 18 км мгла {туман} 4/3 500 м
[Cb cap Ci fib]
+29.8 +27.9 90 +49 +49 опасность
перегрева
1009.7 1008.9 +34.4
15 17.08 штиль 0 18 км 6/1 540 м
[Cu med, cong Cs]
+27.8 +26.4 92 +42 +42 опасность
перегрева
1010.6 1009.8
18 17.08 штиль 0 18 км 8/1 540 м
[Cu med, cong Cs]
+26.3 +25.0 93 +38 +38 очень
душно
1009.1 1008.3
21 17.08 штиль 0 18 км 8/1 540 м
[Cu med, cong Cs]
+25.7 +29.8 100 +38 +38 очень
душно
1009.0 1008.2
00 18.08 ЮЗ 2 18 км мгла {туман} 8/1 540 м
[Cu med, cong Cs]
+30.0 +27.0 84 +47 +52 опасность
перегрева
1010.0 1009.2 +24.6
03 18.08 В 2 20 км мгла {туман} 4/1 540 м
[Cu med, cong Ci fib]
+32.5 +29.4 84 +57 +75 опасность
перегрева
1009.7 1008.9
06 18.08 СВ 3 20 км мгла {туман} 4/1 540 м
[Cu med, cong Ci fib]
+33.3 +31.7 91 +66 +78 опасность
перегрева
1007.0 1006.2
09 18.08 СВ 1 20 км мгла {туман} 3/1 540 м
[Cu med, cong Ci fib]
+33.6 +27.1 69 +52 +54 опасность
перегрева
1006.4 1005.6
12 18.08 ЮЗ 2 20 км {туман} 5/1 540 м
[Cu med, cong Ci fib]
+30.1 +25.8 78 +45 +45 опасность
перегрева
1007.9 1007.1 +34.2
15 18.08 Ю 1 25 км 3/1 540 м
[Cu med, cong Ci fib]
+27.9 +25.4 86 +41 +41 опасность
перегрева
1008.8 1008.0
18 18.08 штиль 0 25 км 3/1 540 м
[Cu med, cong Ci fib]
+26.6 +24.6 89 +38 +38 очень
душно
1007.4 1006.6
21 18.08 ЮЗ 1 25 км 3/1 540 м
[Cu med, cong Ci fib]
+25.6 +24.0 91 +35 +35 очень
душно
1006.6 1005.8
00 19.08 ЮВ 1 20 км мгла {туман} 4/1 540 м
[Cu med, cong Ci fib]
+30.5 +24.6 71 +43 +50 опасность
перегрева
1007.6 1006.8 +24.0
03 19.08 СВ 4 20 км мгла {туман} 4/1 540 м
[Cu med, cong Ci fib]
+32.5 +26.5 71 +49 +61 опасность
перегрева
1007.2 1006.4
06 19.08 В 4 18 км мгла {туман} 6/4 540 м
[Cu med, cong Ci fib]
+33.0 +28.0 75 +54 +60 опасность
перегрева
1005.8 1005.0
09 19.08 З 1 18 км осадки на расстоянии {туман} 8/5 500 м
[Cb cap Ci fib]
+28.6 +24.1 77 +40 +41 очень
душно
1005.5 1004.7
12 19.08 штиль 0 18 км {туман} 5/3 540 м
[Cu med, cong Ci fib]
+28.0 +24.0 79 +39 +39 очень
душно
1007.6 1006.8 +34.0
15 19.08 З 1 20 км 4/1 540 м
[Cu med, cong Ci fib]
+27.0 +24.3 85 +38 +38 очень
душно
1008.3 1007.5
18 19.08 штиль 0 18 км 9/3 540 м
[Cu med, cong Ac trans]
+26.8 +24.9 89 +38 +38 очень
душно
1006.6 1005.8
21 19.08 штиль 0 20 км 4/1 540 м
[Cu med, cong Ac trans Ci fib]
+26.0 +24.4 91 +36 +36 очень
душно
1005.5 1004.7
00 20.08 ЮВ 2 18 км 9/4 540 м
[Cu med, cong Ac trans Ci fib]
+29.0 +26.4 86 +44 +47 опасность
перегрева
1006.8 1006.0 +26.0
03 20.08 Ю 1 18 км 9/3 540 м
[Cu med, cong Ac trans Cs]
+31.5 +26.8 76 +49 +59 опасность
перегрева
1007.3 1006.5
06 20.08 Ю 2 18 км осадки на расстоянии 9/4 540 м
[Cu med, cong Cs]
+33.1 +26.6 69 +50 +58 опасность
перегрева
1005.8 1005.0
09 20.08 Ю 2 18 км осадки на расстоянии 10/4 540 м
[Cu med, cong Cs]
+28.5 +25.2 82 +41 +42 опасность
перегрева
1005.3 1004.5
12 20.08 штиль 0 16 км {гроза} 9/4 540 м
[Cu med, cong Cs]
+29.2 +23.9 73 +40 +40 очень
душно
1006.8 1006.0 +33.6
15 20.08 З 1 18 км 8/3 540 м
[Cu med, cong Cs]
+28.0 +24.0 79 +39 +39 очень
душно
1007.8 1007.0
18 20.08 штиль 0 18 км 8/3 540 м
[Cu med, cong Ac trans]
+27.0 +24.3 85 +38 +38 очень
душно
1005.8 1005.0
21 20.08 штиль 0 18 км 9/3 540 м
[Cu med, cong Ac trans Cs]
+26.1 +24.6 91 +37 +37 очень
душно
1005.8 1005.0
00 21.08 штиль 0 18 км мгла 9/3 540 м
[Cu med, cong Ac trans Cs]
+29.0 +25.1 80 +42 +46 опасность
перегрева
1007.8 1007.0 +24.5
03 21.08 ЮЗ 2 18 км мгла {туман} 9/3 540 м
[Cu med, cong Ac trans Cs]
+31.8 +26.3 73 +48 +57 опасность
перегрева
1007.0 1006.2
06 21.08 штиль 0 18 км мгла {туман} 9/3 540 м
[Cu med, cong Ac As Cs]
+33.0 +29.3 81 +58 +66 опасность
перегрева
1005.5 1004.7
09 21.08 штиль 0 15 км осадки на расстоянии {туман} 10/4 500 м
[Cu med, cong Ac As Cs]
+31.0 +26.9 79 +48 +49 опасность
перегрева
1006.3 1005.5
12 21.08 Ю 2
{12}
8000 м слаб. дождь {гроза} 10/4 500 м
[Cb cap As op]
+25.5 +25.0 97 +36 +36 очень
душно
1009.6 1008.8 +33.9 16
15 21.08 штиль 0 12 км осадки на расстоянии 10/4 540 м
[Cu med, cong Ac As]
+25.1 +24.9 99 +36 +36 очень
душно
1009.1 1008.3 2
18 21.08 штиль 0 15 км {дождь} 9/4 540 м
[Cu med, cong Ac As]
+25.7 +24.8 95 +36 +36 очень
душно
1006.9 1006.1 2
21 21.08 штиль 0 18 км 9/4 540 м
[Cu med, cong Ac trans]
+26.5 +24.6 89 +37 +37 очень
душно
1006.2 1005.4
00 22.08 Ю 2 18 км 9/1 540 м
[Cu med, cong Ac trans Cs]
+27.3 +23.3 79 +37 +40 очень
душно
1005.7 1004.9 +23.3 18
03 22.08 ЮЗ 3 18 км 9/1 540 м
[Cu med, cong Ac trans Cs]
+29.0 +26.3 85 +44 +53 опасность
перегрева
1005.8 1005.0
06 22.08 Ю 1 18 км 10/1 540 м
[Cu med, cong Ac trans Cs]
+31.5 +27.3 78 +50 +58 опасность
перегрева
1004.8 1004.0
09 22.08 З 4 18 км 10/1 540 м
[Cu med, cong Cs]
+30.8 +26.3 77 +47 +48 опасность
перегрева
1003.8 1003.0
12 22.08 Ю 2 16 км 9/4 540 м
[Cu med, cong Ac trans Cs]
+29.2 +26.2 84 +44 +44 опасность
перегрева
1005.6 1004.8 +32.7
15 22.08 Ю 2 18 км 8/3 540 м
[Cu med, cong Cs]
+28.2 +24.6 81 +40 +40 очень
душно
1004.9 1004.1
18 22.08 СВ 1 18 км 9/3 540 м
[Cu med, cong Cs]
+26.4 +24.9 91 +38 +38 очень
душно
1004.5 1003.7
21 22.08 штиль 0 18 км 9/1 540 м
[Cu med, cong Ac trans Cs]
+27.3 +24.2 83 +38 +38 очень
душно
1003.0 1002.2
00 23.08 ЮЗ 2 18 км 10/3 540 м
[Cu med, cong Ac trans Cs]
+28.1 +25.1 84 +41 +43 опасность
перегрева
1004.0 1003.2 +24.6
03 23.08 ЮЗ 2 18 км 10/5 540 м
[Cu med, cong Ac trans Cs]
+30.5 +26.2 78 +46 +51 опасность
перегрева
1005.6 1004.8
06 23.08 З 4 18 км 10/4 540 м
[Cu med, cong Ac trans Cs]
+31.6 +27.0 77 +50 +53 опасность
перегрева
1002.1 1001.3
09 23.08 ЮЗ 5
{10}
15 км осадки на расстоянии 10/4 540 м
[Cu med, cong Ac As Cs]
+27.9 +26.1 90 +42 +42 опасность
перегрева
1002.4 1001.6
12 23.08 З 3 18 км 9/4 540 м
[Cu med, cong Ac As Cs]
+28.4 +26.3 88 +43 +43 опасность
перегрева
1003.8 1003.0 +33.4

 

Местоположение метеостанции Инфанта (Филиппины): широта 14.75 долгота 121.65 высота над уровнем моря 7 м.

В архиве по умолчанию представлена погода в Инфанте за последнюю неделю. Архивные данные за месяц целиком и за предыдущие месяцы, начиная с января 2011 года, Вы можете получить, выбрав интересующий диапазон дат из раскрывающегося списка и нажав кнопку "Ввод!".


*Определитесь, кто Вы:
робот инопланетянин человек

Внимание! Время в таблицах - всемирное. Для получения местного времени необходимо прибавить поправку, которая равна 8 ч.

Смотрите также архив погоды в соседних городах и на ближайших метеорологических станциях:

Погода в Танае (Филиппины) (43 км)
Погода в Научном саду (Филиппины) (70 км)
Погода в Аэропорту Ninoy Aquino (Филиппины) (74 км)
Погода в Маниле (Филиппины) (75 км)
Погода в Тайябасе (Филиппины) (80 км)
Погода на Алабате (Филиппины) (84 км)
Погода в Сангли Пойнт (Филиппины) (84 км)
Погода на Амбулонге (Филиппины) (99 км)
Погода в Кабанатуане (Филиппины) (110 км)
Погода в Балер Радар (Филиппины) (111 км)

Пояснения к столбцам:

Ветер - указаны скорость ветра в м/с - средняя за 10 мин, порывы в срок и между сроками (в фигурных скобках) и направление, откуда дует ветер: С - северный, СВ - северо-восточный, В - восточный, ЮВ - юго-восточный, Ю - южный, ЮЗ - юго-западный, З - западный, СЗ - северо-западный.
Видимость - горизонтальная дальность видимости в метрах или километрах. При видимости от 1 до 10 км при отсутствии осадков обычно наблюдается дымка, при ухудшении видимости до 1 км и менее - туман. В сухую погоду видимость может ухудшаться дымом, пылью или мглою.
Явления - указаны атмосферные явления, наблюдавшиеся в срок или в последний час перед сроком; фигурными скобками обозначены явления, наблюдавшиеся между сроками (за 1-3 часа до срока); квадратными скобками обозначены град или гололедные отложения с указанием их диаметра в мм.
Облачность - указаны через наклонную черту общая и нижняя облачность в баллах и высота нижней границы облаков в метрах; квадратными скобками обозначены формы облаков: Ci - перистые, Cs - перисто-слоистые, Cc - перисто-кучевые, Ac - высококучевые, As - высокослоистые, Sc - слоисто-кучевые, Ns - слоисто-дождевые, Cu - кучевые, Cb - кучево-дождевые. Подробнее классификацию облаков см. в Атласе облаков (PDF).
T - Температура воздуха - температура, измеренная на высоте 2 м над землей.
Td - Температура точки росы - температура, при понижении до которой содержащийся в воздухе водяной пар достигнет насыщения.
f - Относительная влажность воздуха - влажноcть воздуха, измеренная на высоте 2 м над землей.
Te - Эффективная температура - температура, которую ощущает одетый по сезону человек в тени. Характеристика душности погоды. При расчете учитывается влияние влажности воздуха и скорости ветра на теплоощущения человека.
Tes - Эффективная температура на солнце - температура, которую ощущает человек, с поправкой на солнечный нагрев. Характеристика знойности погоды. Зависит от высоты солнца над горизонтом, облачности и скорости ветра. Ночью, в пасмурную погоду, а также при ветре 12 м/с и более поправка равна нулю.
P - Атмосферное давление - приведенное к уровню моря атмосферное давление.
Po - Атмосферное давление - измеренное на уровне метеостанции атмосферное давление.
Tmin - Минимальная температура - минимум температуры воздуха на высоте 2 м над землей.
Tmax - Максимальная температура - максимум температуры воздуха на высоте 2 м над землей.
R - Количество осадков - Количество выпавших осадков за период времени, мм. При наведении курсора мыши на число - период времени, за который выпало указанное количество осадков.
R24 - Количество осадков - Количество выпавших осадков за 24 часа, мм.
S - Снежный покров - Высота снежного покрова, см. При наведении курсора мыши на число - состояние снежного покрова и степень покрытия местности в баллах.